Showing default

BEIDOU 3M13, 43622

Orbit data source: Space-Track

BEIDOU 3M13, 43622 is a payload satellite owned by CNSA (CN) in MEO that was launched on Wed, 19 Sep 2018 UTC via a CHANG ZHENG 3B/YZ-1 launch vehicle from the Xichang Space Center, China (XSC). Payload-class satellites include a variety of spacecraft equipped with specific instruments for various scientific and technological missions. These include communications satellites like Starlink; space stations such as the ISS; scientific satellites like the Hubble; Earth observation satellites from companies like Planet Labs, Umbra, and HawkEye 360; GPS; miniature CubeSats for education and research; and military/defense satellites.

Loading next visibility...
Identifier
43622, 2018-072A
Orbit
MEO
Country
Flag of CNCN / PRC
Related business
Manufacturer
CAST
Mission
Operational Defense Navigation
Bus & Motor
BD-3M/SAR, Unknown motor
Mass
1,014 kg wet, ~850 kg dry
Launch date (UTC)
2018-09-19 (7 years ago)
Launch vehicle
CHANG ZHENG 3B/YZ-1
Launch site
Xichang Space Center, China (XSC)
Object type
Payload
Rocket body
Debris
Shape & HBR
Box + 2 Pan, 5.0 m
Radar Cross Section
8.984 m², Large (>1 m²)

Expand to show TLE details & history
Last TLE update: 4 days ago

TLE from 4 days ago
0 BEIDOU 3M13
1 43622U 18072A   25255.93007659 -.00000005  00000-0  00000-0 0  9999
2 43622  56.3789  71.8250 0004063 321.7396  38.2673  1.86231108 47497
Epoch: 2025-09-12T22:19Z
TLE epoch observation values (Epoch: 2025-09-12T22:19:18.617Z)
Latitude
-0°
Longitude
104.81789°
Altitude
21,519.452 km
Speed
3.781 km/s
True Right ascension
04h 47m 15s
True Declination
0° 00' 00"
Sunlit
Object was in daylight at epoch
Visualization orbit readout
Latitude
Unknown
Longitude
Unknown
Altitude
Unknown
Speed
Unknown
Apparent Right ascension
Unknown
Apparent Declination
Unknown
Sunlit
N/A
Visualization observer readout
Local Sidereal Time
16:14:29
Azimuth
Unknown
Elevation
Unknown
Doppler factor
Unknown
Orbital elements
Apogee altitude
21,539.333 km
Perigee altitude
21,516.656 km
Semi-major axis
27,906.132 km
Eccentricity
0.00041
Inclination
56.3789°
RAAN
71.825°
Arg. of periapsis
321.7396°
True anomaly
38.29615°
Mean anomaly
38.2673°
Eccentric anomaly
38.28172°
Mean motion
0.46558 °/min
Orbital period
773.23 mins
BSTAR
0
Loading maneuver chart data...
Computing Atmospheric mass density...
Loading historical data...
Loading historical data...
Loading historical data...
Loading historical data...
Loading historical data...
Loading historical data...
Loading historical data...
Other satellites on launch #72 in the year 2018 (2018-09-19 UTC)

Documentation

Showing up to 5 results
|